Vorticity
7 7 5 4 4 4 3 3 4 4 5 8 13 14 19 16 20 22 21 3 1 1 1 10 11 14 6 33 3 11 -7 -14 47 15 -11 15 6 -7 22 1 22 -10 18 14 10
7 5 4 4 5 4 3 3 4 4 6 14 17 20 15 21 15 25 13 10 11 12 18 1 3 15 11 11 24 -7 16 -2 -10 13 43 -0 -5 41 9 -4 9 6 2 7 18
6 4 4 5 5 3 3 3 3 5 11 18 17 14 21 20 24 4 11 5 9 14 7 16 23 12 -6 30 13 18 -11 12 15 -4 2 8 25 7 20 15 -3 10 14 15 9
5 4 4 5 5 4 4 5 2 7 15 18 19 22 18 6 19 6 9 8 9 9 11 6 22 24 12 5 44 1 27 1 16 15 -3 16 5 25 11 3 2 14 8 10 6
3 3 3 6 5 4 3 3 4 12 22 23 23 17 11 10 8 8 12 12 8 8 5 11 14 22 7 -11 29 4 7 8 21 20 8 22 -13 26 11 1 1 7 9 21 7
3 3 2 3 6 5 4 2 7 19 26 24 20 8 11 16 10 8 -2 2 10 14 16 15 14 31 -3 19 16 14 4 17 -1 17 17 -2 14 -13 37 -9 4 11 19 14 6
3 3 3 2 3 4 4 3 12 23 30 20 5 15 5 3 7 2 5 8 11 6 10 16 0 8 17 12 13 19 -15 30 9 20 8 15 2 23 -24 28 4 10 31 10 14
3 3 2 2 3 4 4 5 19 29 14 18 8 11 -1 6 9 -2 6 10 9 5 13 11 13 7 21 13 -3 5 4 17 23 3 8 0 13 7 15 5 6 -1 41 5 3
4 4 3 3 4 4 3 10 24 26 5 15 -1 15 4 14 5 4 8 9 16 10 15 9 8 15 21 15 15 7 2 19 -2 31 3 1 22 18 2 28 2 19 30 13 8
4 5 4 4 6 3 3 16 24 27 22 6 -5 37 8 5 8 -6 9 11 12 14 16 11 17 -1 32 17 9 15 12 33 -1 27 13 10 2 10 12 20 71 -8 1 30 16
3 4 3 4 5 3 6 22 31 21 19 -5 13 3 3 13 16 5 13 14 1 12 6 13 19 18 15 14 8 20 -6 9 28 -4 15 18 7 4 11 30 -4 40 -35 40 7
3 3 3 10 5 3 11 22 24 18 -1 -6 14 6 4 6 21 2 13 10 -1 21 6 12 0 9 2 7 21 0 27 0 10 3 6 15 22 -7 -3 -6 3 24 22 -4 -11
3 3 5 6 5 4 17 24 29 21 -2 -3 5 -0 6 14 8 6 4 8 4 22 13 19 4 2 14 9 17 19 3 16 -4 8 17 16 20 22 3 2 18 25 42 3 16
4 3 7 4 8 9 19 24 21 17 7 -5 2 -7 1 25 -11 6 12 12 3 10 29 6 -0 3 6 9 6 18 5 7 15 -3 12 8 13 14 12 5 12 -0 4 42 -6
3 4 8 7 5 17 19 21 14 12 -2 17 -4 4 9 19 9 6 7 8 -6 10 13 18 28 13 15 3 15 6 9 18 23 16 -5 24 -2 36 12 0 13 4 3 35 -4
3 6 6 9 10 20 20 19 13 20 -13 11 7 12 7 25 -1 11 7 12 -4 14 29 1 7 13 12 6 7 1 34 15 14 8 12 13 -3 26 25 6 6 8 5 2 14
2 9 6 7 14 24 21 19 14 14 -1 -4 -5 12 7 13 -4 18 12 14 11 37 16 31 -4 24 12 11 10 13 15 -1 3 7 4 19 5 -5 11 37 17 12 14 10 49
3 8 5 8 18 19 20 21 20 1 -1 4 11 15 7 9 3 14 10 7 -2 3 52 2 13 13 23 3 8 9 12 15 7 9 8 17 8 -3 19 7 25 10 9 0 9
5 7 10 11 21 17 19 14 -0 9 3 4 26 15 5 -1 25 23 5 -3 -3 1 43 6 13 -3 3 10 2 11 18 2 10 15 6 6 17 -10 15 12 9 19 8 7 24
6 7 11 15 20 17 17 20 9 6 7 9 12 6 -1 -3 13 22 4 -15 -2 -2 17 -9 17 5 61 22 7 -0 -1 11 6 4 7 15 6 11 11 30 9 19 10 6 -3
9 8 11 19 16 16 15 11 6 7 12 18 4 11 6 5 18 20 -1 20 -15 14 23 20 23 -38 34 19 14 10 6 3 13 10 8 9 8 13 6 12 27 20 15 5 0
8 16 11 13 20 16 10 10 4 8 12 11 15 4 8 5 21 18 -5 16 15 -1 24 -15 18 9 39 14 14 17 -4 15 12 5 9 13 10 18 11 13 -1 30 24 3 7
8 15 12 7 16 14 10 4 9 10 9 8 16 9 7 13 25 10 4 24 -7 25 3 7 -11 12 8 -11 10 4 5 2 9 10 13 9 10 10 9 10 10 24 17 6 14
12 15 13 3 17 12 13 7 9 7 10 7 15 6 12 29 4 10 -5 8 20 14 5 21 12 9 -11 -9 11 7 12 -8 13 3 15 20 4 15 14 23 10 21 21 6 13
8 8 7 2 14 11 8 9 8 14 8 10 6 13 8 10 26 -19 14 23 19 10 -0 12 10 -3 46 10 30 22 23 4 9 -0 18 4 12 10 12 13 19 19 20 3 8
11 18 13 12 12 13 5 9 8 9 6 10 12 13 13 6 5 11 12 14 3 13 13 6 -4 6 29 12 20 13 28 16 8 13 4 14 2 13 9 4 14 13 20 10 6
10 15 12 11 11 15 5 6 6 7 5 12 5 12 15 10 16 17 22 6 10 -2 4 4 12 25 6 18 26 -18 11 22 10 12 9 8 8 5 10 22 6 15 32 12 9
Height
3124 3120 3117 3113 3108 3103 3096 3089 3082 3076 3068 3059 3049 3040 3033 3028 3023 3019 3017 3017 3013 3011 3007 3005 3004 3003 3002 3003 3009 3012 3011 3005 3010 3018 3024 3033 3035 3041 3046 3048 3054 3057 3061 3065 3071
3123 3119 3115 3111 3106 3099 3092 3085 3078 3071 3063 3054 3044 3036 3029 3025 3021 3017 3017 3015 3013 3009 3005 3003 3001 3000 2999 3000 3004 3006 3005 3003 3010 3015 3020 3027 3032 3035 3041 3044 3049 3053 3057 3062 3066
3121 3118 3113 3108 3102 3096 3089 3082 3074 3067 3057 3047 3038 3030 3026 3024 3022 3019 3016 3013 3010 3007 3004 3001 2998 2996 2996 2998 3000 3001 2999 3005 3007 3013 3018 3024 3028 3030 3034 3039 3044 3047 3052 3056 3062
3120 3116 3111 3106 3100 3093 3085 3078 3069 3062 3051 3042 3034 3028 3024 3022 3024 3019 3016 3013 3009 3006 3003 2999 2995 2992 2992 2993 2995 2997 2999 3003 3005 3011 3015 3020 3022 3024 3028 3034 3038 3042 3047 3052 3059
3119 3115 3110 3105 3098 3090 3082 3074 3065 3057 3046 3037 3031 3027 3026 3023 3021 3018 3016 3012 3009 3006 3001 2997 2993 2991 2990 2989 2992 2995 2997 3001 3004 3008 3011 3015 3017 3018 3022 3027 3033 3037 3042 3048 3053
3117 3113 3108 3102 3096 3088 3079 3071 3061 3052 3042 3034 3029 3027 3024 3024 3021 3018 3014 3011 3008 3004 3001 2996 2993 2991 2989 2988 2990 2992 2994 2998 3002 3004 3006 3011 3013 3015 3016 3020 3029 3033 3038 3044 3051
3115 3110 3105 3098 3093 3086 3077 3067 3057 3048 3039 3033 3030 3027 3025 3024 3021 3018 3014 3010 3007 3003 3000 2996 2993 2991 2989 2986 2988 2991 2995 2996 3000 3002 3004 3008 3008 3009 3016 3018 3027 3031 3034 3040 3046
3112 3107 3102 3095 3088 3082 3073 3063 3053 3044 3038 3034 3031 3028 3025 3023 3020 3018 3015 3011 3007 3002 3000 2996 2993 2990 2988 2988 2989 2991 2995 2995 2998 3001 3003 3005 3006 3009 3012 3014 3020 3028 3031 3037 3043
3110 3105 3098 3091 3084 3077 3069 3058 3049 3042 3038 3034 3033 3029 3027 3025 3022 3019 3014 3009 3005 3001 2998 2996 2994 2991 2988 2989 2991 2991 2994 2994 2996 2998 3002 3005 3004 3005 3009 3011 3016 3023 3028 3034 3041
3109 3102 3096 3088 3079 3072 3065 3056 3049 3042 3039 3035 3033 3032 3029 3024 3021 3019 3015 3009 3004 3000 2999 2996 2994 2992 2990 2990 2992 2992 2995 2994 2995 2997 3000 3004 3007 3007 3011 3012 3007 3016 3022 3031 3039
3107 3101 3094 3087 3077 3068 3060 3054 3049 3041 3038 3036 3035 3033 3029 3026 3022 3019 3014 3008 3005 3001 2999 2997 2996 2994 2992 2992 2992 2992 2993 2994 2995 2997 2998 3002 3007 3009 3006 3004 3008 3014 3021 3030 3036
3106 3099 3092 3085 3076 3066 3059 3050 3042 3040 3038 3038 3036 3034 3030 3025 3021 3019 3016 3011 3006 3001 3000 2999 2996 2995 2994 2993 2992 2993 2993 2996 2996 2996 2999 3001 3003 3009 3009 3011 3010 3013 3017 3025 3029
3104 3098 3090 3082 3074 3066 3055 3048 3042 3038 3040 3037 3034 3030 3027 3026 3023 3018 3016 3011 3007 3003 3000 2998 2998 2996 2995 2994 2993 2993 2995 2997 2998 2997 2999 3000 2999 3002 3006 3007 3010 3009 3015 3022 3028
3100 3094 3088 3079 3071 3061 3054 3046 3041 3039 3039 3041 3036 3032 3026 3025 3026 3021 3017 3014 3009 3005 3001 3001 2999 2997 2996 2995 2994 2994 2996 2997 2998 3000 3000 3000 3002 3002 3006 3010 3011 3014 3017 3021 3025
3098 3092 3086 3076 3069 3061 3054 3046 3043 3041 3044 3041 3037 3034 3031 3027 3026 3024 3018 3015 3010 3007 3006 3004 2999 2998 2996 2996 2996 2996 2995 2996 2998 3000 3002 3001 3003 3000 3005 3007 3011 3012 3014 3016 3025
3096 3089 3083 3077 3068 3060 3052 3046 3043 3043 3045 3044 3039 3035 3032 3028 3026 3023 3019 3016 3011 3007 3006 3004 3002 3000 2998 2998 2997 2996 2996 2997 3000 3002 3004 3000 3002 2999 2999 3001 3007 3010 3015 3019 3022
3094 3087 3080 3072 3066 3057 3051 3047 3046 3044 3052 3047 3039 3035 3031 3026 3025 3021 3017 3014 3012 3008 3006 3004 3003 3002 3000 2999 2998 2997 2997 2999 3007 3007 3004 2999 2999 3000 3001 3003 3006 3011 3014 3017 3020
3093 3086 3079 3071 3063 3056 3051 3050 3045 3050 3047 3045 3042 3037 3035 3029 3027 3024 3020 3017 3016 3014 3010 3008 3004 3003 3002 3001 3000 2998 2997 2999 3011 3010 3002 3003 3004 3003 3001 3003 3005 3008 3013 3018 3021
3091 3085 3078 3072 3063 3056 3052 3050 3051 3049 3048 3043 3039 3035 3038 3035 3030 3025 3024 3021 3019 3016 3016 3012 3007 3005 3003 3001 3003 3000 3000 3000 2999 3001 3002 3004 3003 3003 3003 3002 3004 3007 3014 3019 3025
3089 3083 3076 3070 3062 3057 3054 3051 3051 3049 3047 3044 3041 3040 3039 3036 3033 3026 3023 3023 3022 3020 3018 3016 3009 3004 3001 3001 3003 3002 3004 3002 3000 3007 3007 3004 3004 3005 3004 3003 3004 3008 3012 3020 3025
3086 3080 3073 3068 3062 3056 3054 3053 3052 3051 3048 3049 3044 3039 3039 3038 3033 3028 3027 3024 3023 3020 3018 3015 3014 3007 3003 3003 3003 3004 3004 3004 3002 3002 3004 3002 3007 3006 3005 3005 3007 3009 3013 3016 3020
3085 3079 3073 3067 3064 3057 3055 3053 3052 3049 3048 3046 3046 3040 3038 3039 3033 3031 3029 3025 3022 3020 3017 3016 3012 3008 3005 3004 3004 3005 3006 3005 3005 3005 3002 3001 3006 3004 3005 3005 3007 3008 3012 3016 3018
3081 3076 3070 3065 3062 3058 3056 3053 3051 3047 3045 3044 3044 3043 3039 3039 3036 3030 3029 3027 3023 3020 3019 3017 3015 3010 3007 3008 3007 3006 3007 3006 3006 3006 3003 3005 3007 3005 3006 3006 3007 3009 3011 3014 3016
3079 3074 3068 3063 3060 3057 3056 3053 3050 3047 3044 3042 3039 3041 3037 3037 3037 3032 3029 3027 3023 3021 3020 3018 3016 3016 3016 3014 3011 3007 3007 3006 3006 3007 3004 3005 3006 3004 3002 3003 3004 3007 3008 3012 3015
3076 3072 3068 3064 3060 3060 3058 3055 3051 3049 3046 3043 3039 3038 3037 3034 3032 3031 3028 3026 3024 3022 3021 3019 3016 3014 3011 3008 3005 3006 3005 3006 3007 3007 3007 3008 3007 3006 3006 3004 3003 3004 3009 3013 3015
3075 3071 3065 3061 3058 3057 3056 3054 3051 3050 3047 3043 3041 3039 3036 3033 3033 3029 3026 3026 3025 3025 3021 3019 3016 3012 3009 3009 3007 3004 3006 3006 3007 3007 3007 3008 3008 3007 3007 3005 3007 3007 3011 3013 3015
3070 3067 3063 3061 3059 3057 3056 3052 3049 3049 3049 3044 3039 3037 3035 3034 3033 3032 3029 3026 3026 3024 3021 3018 3015 3012 3009 3007 3006 3008 3007 3007 3008 3008 3008 3008 3008 3006 3006 3005 3006 3007 3009 3013 3016